Regional Weather Roundup
Issued by NWS Kansas City/Pleasant Hill, MO

Home | Current Version | Previous Version | Text Only | Print | Product List | Glossary On
Versions: 1 2 3 4 5 6 7 8 9 10 11 12 13 14 15 16 17 18 19 20 21 22 23 24 25 26 27 28
000
ASUS43 KEAX 211910
RWREAX

WEATHER ROUNDUP FOR EASTERN KANSAS AND NORTHWEST MISSOURI
NATIONAL WEATHER SERVICE KANSAS CITY/PLEASANT HILL MO
100 PM CST TUE FEB 21 2017

KSZ040-057-103>105-MOZ028-029-037-043-212000-
...KANSAS CITY METROPOLITAN AREA...

CITY           SKY/WX    TMP DP  RH WIND       PRES   REMARKS
K.C. INTL      MOSUNNY   68  44  42 N7        29.96F
K.C. DOWNTOWN  SUNNY     68  47  46 VRB3      29.94F
LEES SUMMIT    SUNNY     66  51  58 NW6       29.96F
OLATHE - IXD   SUNNY     67  47  48 N7        29.97F
OLATHE - OJC   SUNNY     66  50  56 VRB7      29.96F
LAWRENCE       SUNNY     69  41  36 NW5       29.96F

$$

MOZ001>008-011>017-020>025-030>033-038>040-044>046-053-054-212000-
...NORTHERN AND CENTRAL MISSOURI...

CITY           SKY/WX    TMP DP  RH WIND       PRES   REMARKS
ST. JOSEPH     SUNNY     64  42  44 VRB3      29.95F
WARRENSBURG    SUNNY     68  50  52 NW5       29.94F
WHITEMAN AFB   MOSUNNY   66  55  66 NW8       29.93F
CLINTON        SUNNY     72  54  53 N6        29.93F
SEDALIA        SUNNY     72  53  51 VRB5      29.93F
WARSAW         NOT AVBL
CHILLICOTHE      N/A     69  47  45 NE3       29.95F
KIRKSVILLE     SUNNY     67  48  50 SE7       29.94F

$$

MOZ041-047>049-056>058-063>065-088>090-097-212000-
...EASTERN AND SOUTHERN MISSOURI...

CITY           SKY/WX    TMP DP  RH WIND       PRES   REMARKS
ST. LOUIS INTL CLOUDY    63  58  83 NE5       29.93S
SPIRIT OF STL  CLOUDY    62  61  96 CALM      29.92S FOG
COLUMBIA       CLOUDY    65  58  78 NE7       29.93F
JEFFERSON CITY CLOUDY    64  57  78 N6        29.91F
ROLLA          CLOUDY    61  60  97 NE9       29.90F
OSAGE BEACH    CLOUDY    64  57  78 N7        29.92F
SPRINGFIELD    LGT RAIN  59  57  93 N6        29.91F FOG
BRANSON        PTSUNNY   57  57 100 N9G17     29.89F
JOPLIN         CLOUDY    66  56  70 NW9       29.94F
WEST PLAINS    CLOUDY    59  56  89 NE7       29.89R

$$

IAZ060-094-KSZ022-034>040-054-083-096-NEZ052-066-093-212000-
...KANSAS...SOUTHEAST NEBRASKA AND IOWA...

CITY           SKY/WX    TMP DP  RH WIND       PRES   REMARKS
TOPEKA         SUNNY     67  40  37 NW5       29.97F
MANHATTAN      SUNNY     65  43  44 S5        29.99F
EMPORIA        SUNNY     65  43  44 N8        29.99F
CHANUTE        SUNNY     69  49  48 N9G18     29.96F
WICHITA        MOSUNNY   66  36  32 N7        30.00F
OMAHA          SUNNY     66  39  37 S15       29.92F
LINCOLN        SUNNY     71  31  22 SW15      29.93F
FALLS CITY     SUNNY     64  41  42 W9        29.96F
LAMONI         SUNNY     65  39  38 W7        29.94F
DES MOINES     MOSUNNY   63  41  44 SW6       29.93F

$$





USA.gov is the U.S. government's official web portal to all federal, state and local government web resources and services.